684  
ASUS42 KCAE 160010  
RWRCAE  
REGIONAL WEATHER ROUNDUP  
NATIONAL WEATHER SERVICE COLUMBIA SC  
800 PM EDT MON JUL 15 2019  
 
NOTE: "FAIR" INDICATES FEW OR NO CLOUDS BELOW 12,000 FEET WITH NO  
SIGNIFICANT WEATHER AND/OR S TO VISIBILITY
.  
 
NOT ALL STATIONS ARE QUALITY CONTROLLED BY THE NATIONAL  
WEATHER SERVICE. USE DATA WITH CAUTION...ESPECIALLY  
DEWPOINT OBSERVATIONS.  
 
SCZ001>056-GAZ040-063>065-077-160100-   
..UPSTATE SOUTH CAROLINA
 
 
 
CITY SKY/WX TMP DP RH WIND PRES REMARKS
 
ANDERSON FAIR 89 67 47 NW7 30.10R  
6HR MIN TEMP: 89; 6HR MAX TEMP: 93;  
 
LIBERTY FAIR 86 73 64 CALM 30.11R  
6HR MIN TEMP: 87; 6HR MAX TEMP: 92;  
 
SPARTANBURG FAIR 79 64 61 CALM 30.10S  
CLEMSON FAIR 83 71 67 CALM 30.12R  
6HR MIN TEMP: 83; 6HR MAX TEMP: 90;  
 
GREENVILLE FAIR 86 65 49 CALM 30.12S  
6HR MIN TEMP: 85; 6HR MAX TEMP: 94; 6HR PCP: TRACE;  
 
GREENWOOD FAIR 83 70 64 SE3 30.11R  
6HR MIN TEMP: 83; 6HR MAX TEMP: 94;  
 
GREER FAIR 75 69 81 CALM 30.12S  
6HR MIN TEMP: 72; 6HR MAX TEMP: 92; 6HR PCP: 0.16;  
 
ROCK HILL FAIR 86 71 60 W5 30.10R  
6HR MIN TEMP: 85; 6HR MAX TEMP: 94;  
 
CHESTER FAIR 79 73 83 CALM 30.10R  
LAURENS FAIR 82 72 69 CALM 30.10R  
 
   
..CENTRAL SOUTH CAROLINA
 
 
 
CITY SKY/WX TMP DP RH WIND PRES REMARKS
 
COLUMBIA APT MOCLDY 85 70 60 W6 30.06R  
6HR MIN TEMP: 85; 6HR MAX TEMP: 96;  
 
COLUMBIA OWENS FAIR 88 69 53 W6 30.07R  
6HR MIN TEMP: 81; 6HR MAX TEMP: 92; 6HR PCP: 0.03;  
 
MCENTIRE ANGB MOCLDY 84 76 74 W6 30.07R  
6HR MIN TEMP: 77; 6HR MAX TEMP: 93; 6HR PCP: 0.14;  
 
ORANGEBURG FAIR 84 73 69 CALM 30.06S  
6HR MIN TEMP: 84; 6HR MAX TEMP: 93; 6HR PCP: TRACE;  
 
SUMTER SHAW FAIR 87 74 63 W9 30.05R HX 95  
6HR MIN TEMP: 87; 6HR MAX TEMP: 94;  
 
NEWBERRY FAIR 82 77 83 CALM 30.11S  
AIKEN FAIR 84 68 58 N3 30.12S  
BARNWELL FAIR 82 73 74 CALM 30.07R  
MANNING FAIR 86 73 66 CALM 30.05R  
CAMDEN FAIR 90 72 55 W7 30.07R HX 96  
LANCASTER FAIR 84 73 70 W5 30.08R  
WINNSBORO FAIR 81 73 78 CALM 30.08S  
 
   
..EASTERN AND COASTAL SOUTH CAROLINA
 
 
 
CITY SKY/WX TMP DP RH WIND PRES REMARKS
 
MYRTLE BEACH FAIR 86 78 77 S7 30.04S HX 98  
6HR MIN TEMP: 86; 6HR MAX TEMP: 90;  
 
N MYRTLE BCH FAIR 85 77 77 SW12 30.04R HX 95  
6HR MIN TEMP: 85; 6HR MAX TEMP: 90;  
 
CONWAY FAIR 84 75 74 CALM 30.04S  
MARION FAIR 82 73 74 CALM 30.04R  
HARTSVILLE FAIR 82 79 89 CALM 30.05R  
FLORENCE FAIR 92 72 51 CALM 30.04R HX 99  
6HR MIN TEMP: 92; 6HR MAX TEMP: 99;  
 
DARLINGTON N/A 87 76 69 SW3 30.05R HX 97  
6HR MIN TEMP: 87; 6HR MAX TEMP: 96; 6HR PCP: 0.04;  
 
CHARLESTON APT MOCLDY 80 76 87 CALM 30.05R  
6HR MIN TEMP: 75; 6HR MAX TEMP: 95; 6HR PCP: 1.46;  
 
MOUNT PLEASANT FAIR 82 79 89 CALM 30.04R  
WALTERBORO FAIR 86 73 66 CALM 30.07R  
BEAUFORT MOCLDY 87 78 74 NW5 30.05R HX 100  
6HR MIN TEMP: 86; 6HR MAX TEMP: 96; 6HR PCP: TRACE;  
 
HILTON HEAD PTCLDY 88 77 70 S7 30.05S HX 100  
 
   
..EASTERN GEORGIA
 
 
 
CITY SKY/WX TMP DP RH WIND PRES REMARKS
 
AUGUSTA BUSH F FAIR 88 76 67 CALM 30.06R HX 99  
6HR MIN TEMP: 88; 6HR MAX TEMP: 100; 6HR PCP: TRACE;  
 
AUGUSTA DANIEL FAIR 94 64 37 NE3 30.09R HX 95  
6HR MIN TEMP: 92; 6HR MAX TEMP: 98;  
 
THOMSON FAIR 87 77 71 CALM 30.09R HX 99  
6HR MIN TEMP: 87; 6HR MAX TEMP: 96;  
 
WASHINGTON FAIR 88 68 51 CALM 30.10R  
CLAXTON FAIR 88 80 77 CALM 30.06R HX 104  
6HR MIN TEMP: 88; 6HR MAX TEMP: 98;  
 
SYLVANIA FAIR 88 75 65 CALM 30.07R HX 98  
6HR MIN TEMP: 88; 6HR MAX TEMP: 97;  
 
STATESBORO FAIR 91 74 57 CALM 30.06R HX 99  
6HR MIN TEMP: 91; 6HR MAX TEMP: 95;  
 
SAVANNAH MOCLDY 91 72 53 N3 30.05R HX 98  
6HR MIN TEMP: 91; 6HR MAX TEMP: 97;  
 
   
..SOUTHERN NORTH CAROLINA
 
 
 
CITY SKY/WX TMP DP RH WIND PRES REMARKS
 
CHARLOTTE MOCLDY 88 68 51 W5 30.09R  
6HR MIN TEMP: 88; 6HR MAX TEMP: 96;  
 
MONROE FAIR 90 65 43 W3 30.07R  
6HR MIN TEMP: 88; 6HR MAX TEMP: 97;  
 
WADESBORO FAIR 91 67 45 CALM 30.05R  
6HR MIN TEMP: 90; 6HR MAX TEMP: 96;  
 
ROCKINGHAM FAIR 91 62 38 CALM 30.05R  
ASHEVILLE FAIR 72 66 81 VRB5 30.21S  
6HR MIN TEMP: 70; 6HR MAX TEMP: 86; 6HR PCP: 0.14;  
 

 
 
 
CLICK HERE TO GO TO PREVIOUS BULLETINS.

The Nexlab SC Page
The Nexlab GA Page Main Text Page